Temperature
5 6 6 6 6 6 5 5 5 5 5 5 4 4 4 4 4 4 3 3 3 3 3 4 4 4 4 5 5 5 5 6 6 6 6 6 6 7 7 7 7 7 7 7
5 6 6 5 5 5 6 5 5 5 5 5 5 4 4 4 3 3 3 3 3 3 3 3 3 3 4 4 4 4 5 5 5 5 6 6 6 6 6 6 6 6 6 6
4 5 6 5 5 5 5 5 5 5 5 4 4 3 4 3 3 3 3 3 3 3 3 3 3 3 3 4 4 4 4 4 4 5 5 5 5 5 5 5 5 5 5 5
4 5 6 6 6 6 5 5 5 5 4 4 4 4 4 4 4 3 3 3 3 3 3 3 3 3 3 3 4 4 4 4 4 4 4 4 4 5 5 4 4 5 5 5
3 4 5 6 6 5 5 5 5 4 4 4 4 3 3 4 4 4 3 3 3 3 3 3 3 3 3 3 3 3 3 3 3 3 3 4 4 4 4 4 4 4 4 4
3 5 5 7 6 6 6 5 5 4 4 3 3 2 3 4 3 3 3 3 3 2 3 3 2 2 2 2 2 2 2 2 2 2 3 3 3 3 3 3 3 3 3 3
3 4 4 5 5 6 5 6 5 5 4 4 3 4 4 4 3 3 3 3 2 2 2 2 2 2 2 2 2 2 2 2 2 2 2 2 2 2 2 2 2 2 2 2
3 4 4 5 5 5 5 5 5 5 5 4 4 4 4 4 3 3 3 2 2 2 2 2 1 1 1 1 1 1 1 1 1 1 1 1 1 2 1 1 1 1 1 2
3 4 5 5 6 7 6 6 6 6 5 5 4 4 4 3 3 3 2 2 2 1 1 1 1 1 1 0 0 0 0 0 0 1 1 1 1 1 1 1 0 0 0 1
3 3 4 5 6 6 6 6 6 6 5 5 4 4 3 3 2 2 2 1 1 1 1 1 1 0 0 -0 -0 -0 -0 -0 -0 -0 -0 -0 -0 -0 -0 -0 -0 -0 -0 -0
2 3 4 5 6 6 6 6 6 5 5 4 4 3 3 3 2 2 1 1 1 1 0 0 0 -0 -0 -0 -0 -0 -1 -1 -1 -1 -1 -1 -1 -1 -1 -1 -1 -1 -1 -1
3 4 3 5 7 6 6 5 5 5 4 4 3 3 3 2 2 1 1 1 0 0 -0 -0 -1 -1 -1 -1 -1 -1 -1 -1 -1 -1 -1 -1 -1 -1 -1 -1 -1 -1 -1 -1
6 6 6 6 6 6 5 5 5 4 4 3 3 3 2 2 1 1 1 0 0 -0 -1 -1 -1 -1 -1 -1 -1 -1 -1 -1 -2 -2 -2 -2 -2 -2 -1 -1 -1 -1 -1 -2
6 5 5 5 5 5 5 4 4 4 3 3 2 2 2 1 1 1 0 -0 -0 -1 -1 -1 -1 -1 -1 -2 -2 -2 -2 -2 -2 -2 -2 -2 -2 -2 -2 -2 -2 -2 -2 -2
5 5 5 5 5 4 4 3 3 3 2 2 2 1 1 1 1 0 -0 -0 -1 -1 -2 -2 -2 -2 -2 -2 -2 -2 -2 -2 -3 -3 -3 -3 -3 -3 -3 -3 -3 -3 -3 -3
4 4 4 4 4 3 3 3 3 2 2 2 1 1 1 0 0 -0 -0 -1 -1 -1 -2 -2 -2 -2 -2 -2 -2 -3 -3 -3 -3 -3 -3 -3 -3 -3 -3 -3 -3 -3 -3 -3
3 2 3 3 3 3 3 3 2 2 2 1 1 1 0 -0 -0 -1 -1 -1 -1 -2 -2 -2 -2 -3 -3 -3 -3 -3 -3 -3 -4 -4 -4 -4 -4 -4 -4 -4 -4 -4 -4 -4
4 4 3 3 3 3 2 2 2 2 1 1 0 -0 -0 -0 -1 -1 -1 -1 -2 -2 -2 -3 -3 -3 -3 -3 -3 -4 -4 -4 -4 -4 -4 -4 -4 -4 -4 -4 -4 -4 -4 -4
3 3 3 3 3 3 2 2 1 1 1 0 -0 -0 -1 -1 -1 -1 -1 -2 -2 -2 -2 -3 -3 -3 -3 -3 -4 -4 -4 -4 -4 -4 -4 -4 -5 -5 -5 -5 -5 -5 -5 -5
2 2 2 2 2 2 2 1 1 0 0 -0 -0 -1 -1 -1 -1 -2 -2 -2 -3 -3 -3 -3 -3 -3 -4 -4 -4 -4 -4 -5 -5 -5 -5 -5 -5 -5 -5 -5 -5 -5 -5 -5
2 2 2 2 1 1 1 1 0 0 -0 -1 -1 -1 -1 -2 -2 -2 -2 -3 -3 -3 -3 -4 -4 -4 -4 -4 -4 -5 -5 -5 -5 -5 -5 -5 -5 -5 -5 -5 -5 -6 -6 -6
1 1 1 1 1 1 0 0 -0 -0 -1 -1 -1 -1 -2 -2 -2 -3 -3 -3 -3 -3 -4 -4 -4 -4 -4 -4 -5 -5 -5 -5 -5 -5 -5 -5 -5 -5 -5 -6 -6 -6 -6 -6
1 1 1 0 0 0 -0 -0 -1 -1 -1 -1 -2 -2 -2 -2 -3 -3 -3 -3 -4 -4 -4 -4 -5 -5 -5 -5 -5 -5 -5 -5 -5 -6 -6 -6 -6 -6 -6 -6 -6 -6 -6 -6
1 0 -0 -0 -1 -1 -1 -1 -1 -1 -1 -2 -2 -2 -3 -3 -3 -3 -4 -4 -4 -4 -5 -5 -5 -5 -5 -5 -5 -5 -6 -6 -6 -6 -6 -6 -6 -6 -6 -6 -6 -6 -6 -6
0 -0 -1 -1 -1 -1 -1 -1 -1 -2 -2 -2 -2 -3 -3 -3 -3 -4 -4 -4 -5 -5 -5 -5 -5 -5 -6 -6 -6 -6 -6 -6 -6 -6 -6 -6 -6 -6 -6 -6 -6 -6 -6 -7
-0 -1 -1 -1 -1 -2 -2 -2 -2 -2 -2 -2 -3 -3 -3 -4 -4 -4 -5 -5 -5 -5 -5 -6 -6 -6 -6 -6 -6 -6 -6 -6 -6 -6 -7 -7 -7 -7 -7 -7 -7 -7 -7 -7
-1 -1 -1 -2 -2 -2 -2 -2 -2 -2 -2 -3 -3 -3 -4 -4 -4 -5 -5 -5 -5 -6 -6 -6 -6 -6 -6 -6 -6 -6 -7 -7 -7 -7 -7 -7 -7 -7 -7 -7 -7 -7 -7 -7
Wind_Speed
4 4 2 2 3 1 2 4 4 4 4 4 3 2 1 1 3 4 5 7 7 7 7 8 8 8 8 8 8 7 7 7 6 5 5 5 5 5 4 3 3 2 1 2
3 3 2 3 4 2 2 2 3 3 3 3 1 2 1 1 2 3 3 4 5 6 7 7 7 7 7 8 7 7 7 7 6 6 6 6 5 5 5 5 4 3 2 2
3 4 3 5 5 4 3 4 5 5 5 3 2 2 3 2 2 1 1 2 4 4 4 5 5 6 6 7 7 7 7 6 6 6 7 6 6 6 5 5 4 4 3 3
1 3 3 5 2 4 4 3 4 4 4 5 4 3 2 3 3 2 0 1 2 3 4 4 5 5 6 6 6 7 7 7 7 6 6 6 6 5 5 5 4 4 4 4
1 1 6 5 2 4 3 4 4 5 5 3 2 2 1 1 2 2 1 1 1 2 2 3 4 5 5 6 7 7 7 8 7 7 6 6 6 5 5 4 4 4 4 4
2 1 5 5 2 2 3 4 4 6 7 5 4 2 4 3 2 1 0 0 1 1 2 3 4 4 5 6 6 7 7 7 7 6 6 6 5 5 5 4 4 4 4 4
3 4 7 5 2 4 3 6 4 7 8 7 6 5 3 3 2 1 1 0 1 1 2 2 3 4 5 5 6 6 6 6 6 6 5 5 5 4 4 4 4 4 4 4
5 4 7 4 5 6 7 2 4 5 6 6 4 3 3 3 2 1 1 1 1 1 2 3 3 3 4 5 6 6 6 6 6 6 5 5 5 4 4 3 4 4 3 4
8 8 4 5 6 5 4 4 4 5 5 5 4 3 3 3 2 2 1 0 1 1 2 3 3 2 3 5 6 6 6 6 6 6 5 5 4 4 4 3 3 3 3 3
5 8 5 6 4 3 4 5 5 6 6 6 5 4 4 3 2 1 1 1 1 1 2 3 3 3 3 4 5 5 6 6 5 5 5 5 4 3 3 3 3 3 3 4
6 7 4 5 6 6 4 4 5 4 5 6 6 4 4 3 3 2 1 1 0 1 2 4 4 4 4 4 5 5 6 6 5 5 4 4 4 4 4 4 4 4 4 3
8 7 6 6 6 6 6 6 6 6 4 4 5 6 5 4 3 2 2 1 1 2 3 3 3 4 4 4 4 5 5 5 4 4 4 4 5 5 6 5 7 7 6 5
6 4 5 4 3 5 6 7 6 7 6 5 4 5 5 3 3 2 2 2 2 3 3 3 3 4 4 4 4 4 5 5 5 4 5 5 5 5 6 7 7 6 7 7
4 2 2 3 4 5 5 5 5 4 4 5 4 4 4 3 2 2 3 3 3 3 3 3 4 4 4 4 5 5 5 6 5 4 4 4 4 4 4 5 6 5 6 7
5 5 5 4 3 4 4 5 5 4 4 3 4 4 4 4 4 4 3 2 2 2 3 4 4 5 4 4 4 5 5 5 5 4 4 4 4 4 4 4 4 4 5 5
3 2 3 4 5 5 5 6 6 6 5 5 4 5 5 4 4 3 2 2 2 4 4 4 5 5 4 4 4 4 4 7 6 4 4 4 4 4 4 4 4 4 4 4
4 4 5 6 6 6 6 7 7 7 6 6 6 5 4 3 3 3 3 3 4 4 4 4 5 4 4 4 4 4 4 5 6 5 4 4 4 4 4 4 4 4 4 5
8 8 7 8 8 8 7 6 6 6 6 5 5 4 4 4 4 4 3 3 3 4 4 4 4 3 4 4 3 3 3 4 4 4 4 3 3 3 3 4 4 4 4 4
5 6 6 6 7 7 7 6 6 5 5 5 5 5 5 5 4 4 3 3 3 4 4 4 5 3 4 4 4 2 3 3 3 3 3 5 4 3 3 3 4 4 4 3
4 4 4 4 5 5 6 5 5 4 4 5 5 4 4 4 3 3 3 4 5 4 4 4 3 3 4 4 3 2 3 3 3 3 3 3 3 3 3 3 3 3 3 3
3 4 4 4 4 4 5 5 6 5 5 5 5 6 5 4 3 3 3 4 4 4 3 4 3 3 3 3 3 2 3 3 3 3 3 3 3 3 3 3 3 3 3 3
3 3 4 4 4 3 3 4 5 5 4 4 4 4 4 4 4 3 4 4 4 4 2 2 3 4 3 3 2 2 3 3 3 3 3 3 3 3 4 4 3 3 3 3
3 3 4 4 4 4 3 3 4 5 5 5 5 5 5 4 4 3 4 3 3 4 2 3 4 5 4 2 2 2 3 3 3 3 3 3 3 3 3 4 3 3 3 3
3 3 4 3 3 4 4 4 4 4 4 4 4 5 4 3 3 3 3 4 4 4 2 4 5 4 3 1 2 2 3 3 3 3 3 3 3 3 3 3 3 3 3 4
4 4 4 4 5 5 5 4 3 3 3 3 3 3 3 3 3 3 3 3 3 3 2 3 4 3 1 2 2 2 3 3 3 2 2 3 3 3 3 3 3 4 4 4
4 4 4 5 5 4 4 4 4 4 4 3 3 2 2 2 2 2 2 2 3 2 2 2 2 2 2 2 2 3 3 3 3 3 3 3 3 4 4 4 4 4 4 4
3 3 3 3 3 4 4 4 5 5 5 5 4 3 3 2 2 2 2 2 2 2 2 2 2 2 2 2 2 2 2 3 3 3 3 3 3 4 4 4 4 4 4 4
Wind_Direction
257 262 238 256 271 250 180 192 192 209 206 229 215 192 174 83 63 50 38 31 27 21 16 16 16 15 14 14 12 17 27 30 25 18 15 17 18 15 11 6 354 332 299 294
314 300 279 277 268 233 217 204 200 198 250 227 167 112 104 102 87 67 42 25 17 17 13 10 9 6 6 6 5 11 22 20 13 13 16 18 15 13 14 9 4 358 346 317
291 311 344 291 247 206 208 202 178 206 220 156 149 172 180 166 133 115 52 17 7 6 2 357 355 360 1 356 358 8 12 11 9 8 11 10 9 11 8 4 4 355 347 336
296 3 272 254 262 184 191 236 206 193 180 174 183 191 179 160 158 161 140 359 348 347 348 346 354 360 357 359 4 6 5 3 1 5 5 359 360 3 358 352 353 351 343 339
115 288 284 285 230 174 183 265 208 183 178 164 132 91 284 227 182 191 205 272 305 318 334 348 356 356 2 4 3 6 3 357 351 352 355 353 351 347 340 339 342 344 340 338
151 221 246 254 204 153 107 280 218 175 172 169 143 185 244 225 197 195 172 34 343 347 7 2 349 356 8 2 1 356 348 342 339 341 343 339 336 335 333 334 331 332 331 328
193 235 263 248 170 117 166 249 193 175 173 172 190 209 200 173 175 174 158 345 26 27 3 335 339 358 359 354 347 334 333 334 337 335 333 329 332 334 331 331 333 330 328 327
177 213 257 201 143 185 219 197 159 169 174 178 189 166 154 161 163 148 113 27 25 9 334 330 342 354 345 334 327 332 334 335 335 333 331 332 331 328 325 325 326 322 326 330
200 219 250 197 205 214 171 170 178 174 178 169 166 173 174 176 174 168 159 315 339 330 324 330 334 340 329 320 328 334 334 330 327 328 326 323 321 319 320 318 309 307 311 315
258 263 250 235 231 205 181 181 178 172 170 165 171 178 177 177 180 189 214 241 309 331 318 315 319 321 314 320 328 330 325 321 321 323 324 323 321 315 310 309 305 303 304 305
257 272 281 257 224 203 182 164 155 158 168 169 166 177 183 188 198 204 218 254 273 275 286 298 311 318 324 328 331 327 321 318 320 320 316 316 317 311 304 291 290 297 291 291
232 228 209 239 222 191 179 186 177 165 165 169 172 181 186 197 201 198 217 251 285 283 287 293 301 306 315 322 325 321 320 318 316 318 318 321 322 324 327 319 321 322 314 308
233 229 217 246 200 189 191 190 180 174 175 180 181 179 180 190 198 201 219 239 255 267 276 285 293 296 304 314 316 312 311 313 315 320 320 321 324 324 325 332 335 335 333 327
226 179 232 222 212 198 185 175 163 161 170 173 173 170 170 176 189 208 229 241 251 266 278 284 288 292 301 311 314 314 314 312 316 313 314 316 313 311 311 315 322 329 332 328
232 223 219 207 178 171 162 152 156 173 175 177 173 172 176 188 207 221 232 245 258 268 281 289 290 295 310 314 315 312 312 310 310 309 310 311 311 310 310 310 311 316 326 328
240 225 180 173 178 177 168 171 182 194 191 190 192 195 196 202 210 218 225 219 241 264 272 278 283 292 303 308 310 307 304 310 317 312 312 314 315 315 315 314 315 317 319 320
193 207 201 199 198 197 195 196 196 196 192 196 201 196 188 193 210 228 237 237 242 256 263 265 276 289 294 293 293 298 302 306 316 316 308 307 311 314 315 315 314 313 313 321
217 215 207 200 197 197 200 198 193 189 194 199 185 180 188 201 220 235 243 250 262 272 270 270 278 289 288 286 287 290 298 302 305 305 307 307 310 311 313 314 313 312 318 322
221 209 204 201 194 189 190 192 193 190 185 177 180 195 208 218 226 235 236 239 251 266 273 276 297 295 283 288 303 283 293 298 300 301 302 311 318 314 312 311 314 317 319 323
209 198 186 184 180 180 183 183 178 180 183 179 184 195 211 225 228 230 232 238 243 252 266 277 280 275 280 289 305 282 286 291 297 300 302 305 308 309 308 309 313 315 319 323
193 177 168 170 178 181 179 176 175 184 188 184 192 206 217 226 223 222 231 253 261 259 267 276 272 270 276 294 298 279 280 285 289 291 297 299 304 306 307 307 311 312 314 317
194 180 177 172 173 185 187 176 176 181 184 195 204 206 210 222 227 236 241 243 253 270 266 260 264 279 295 302 272 269 274 281 285 287 287 291 295 300 303 305 302 305 308 308
199 193 186 185 186 187 180 179 182 184 193 202 207 209 214 222 220 226 252 253 249 268 267 258 277 290 297 288 263 264 271 274 278 280 281 282 286 291 295 299 301 304 303 305
199 199 193 184 169 172 192 209 201 197 200 209 214 212 209 220 238 234 234 251 259 270 259 272 285 290 296 274 262 263 267 269 270 271 276 281 282 284 288 293 296 299 299 300
200 195 189 185 194 206 206 196 190 195 194 208 218 218 214 214 223 234 231 237 254 267 261 276 286 296 293 270 262 265 266 267 269 270 267 276 281 282 282 285 288 290 292 292
208 209 210 213 213 208 198 194 203 205 200 209 223 218 211 212 213 221 228 235 246 264 263 270 279 283 273 269 267 267 268 279 289 286 278 278 279 281 282 283 285 285 286 287
212 213 210 216 216 205 200 201 204 208 204 205 217 213 203 205 211 219 223 229 242 254 259 264 267 267 270 272 272 269 268 267 269 270 272 273 275 277 280 282 282 282 282 281
Height
1478 1474 1473 1472 1470 1470 1471 1472 1475 1472 1471 1468 1468 1468 1468 1467 1466 1465 1463 1461 1459 1457 1455 1453 1451 1449 1448 1446 1445 1444 1442 1441 1441 1440 1439 1439 1439 1438 1438 1439 1438 1439 1440 1440
1477 1472 1472 1472 1469 1469 1469 1469 1469 1469 1470 1466 1467 1468 1468 1468 1467 1466 1465 1463 1461 1459 1457 1455 1453 1451 1449 1447 1446 1445 1443 1442 1441 1440 1439 1438 1437 1437 1436 1436 1436 1436 1436 1436
1481 1475 1473 1473 1468 1467 1467 1465 1466 1468 1467 1466 1468 1467 1467 1467 1467 1466 1465 1464 1463 1461 1459 1457 1455 1453 1451 1449 1448 1446 1444 1443 1441 1440 1438 1437 1436 1436 1435 1434 1433 1433 1433 1433
1484 1479 1476 1469 1462 1463 1464 1463 1462 1462 1463 1464 1465 1466 1466 1466 1466 1466 1466 1465 1463 1462 1460 1458 1456 1454 1453 1451 1449 1447 1445 1443 1441 1439 1438 1437 1436 1434 1433 1433 1432 1431 1430 1429
1486 1483 1475 1465 1461 1462 1464 1463 1461 1462 1463 1464 1465 1466 1467 1466 1466 1466 1465 1464 1463 1462 1460 1458 1456 1455 1453 1451 1448 1447 1445 1443 1441 1439 1437 1436 1434 1433 1432 1431 1429 1428 1427 1426
1485 1481 1476 1462 1459 1459 1463 1463 1458 1459 1461 1463 1464 1468 1466 1465 1465 1465 1464 1463 1462 1461 1459 1458 1456 1454 1452 1450 1448 1446 1444 1442 1440 1438 1436 1435 1433 1432 1430 1429 1427 1426 1424 1423
1484 1482 1472 1460 1458 1460 1467 1460 1455 1456 1458 1460 1461 1462 1463 1463 1463 1463 1463 1462 1461 1460 1458 1457 1455 1453 1450 1448 1447 1445 1443 1441 1439 1437 1435 1434 1432 1430 1429 1427 1425 1423 1422 1421
1482 1480 1472 1456 1458 1460 1457 1453 1453 1455 1456 1457 1458 1460 1461 1461 1462 1462 1461 1460 1459 1458 1457 1455 1454 1452 1450 1448 1446 1444 1442 1439 1437 1435 1433 1432 1430 1428 1426 1424 1422 1420 1419 1418
1469 1464 1455 1453 1452 1452 1452 1452 1453 1454 1455 1456 1457 1458 1459 1460 1460 1460 1460 1459 1458 1457 1455 1454 1452 1450 1448 1446 1444 1442 1440 1437 1435 1433 1432 1430 1428 1426 1424 1422 1420 1418 1416 1414
1462 1454 1451 1451 1450 1450 1451 1451 1452 1453 1454 1455 1456 1457 1457 1458 1458 1458 1457 1457 1456 1454 1453 1452 1450 1448 1447 1445 1443 1440 1438 1435 1433 1431 1429 1427 1425 1423 1421 1419 1417 1415 1413 1411
1458 1452 1449 1447 1447 1448 1449 1450 1451 1452 1453 1454 1454 1455 1455 1456 1456 1456 1455 1454 1453 1452 1450 1449 1448 1446 1445 1443 1440 1438 1436 1434 1431 1429 1427 1424 1423 1421 1419 1417 1415 1413 1411 1409
1451 1445 1446 1444 1444 1446 1447 1448 1449 1450 1451 1452 1453 1453 1453 1453 1454 1453 1453 1452 1451 1450 1449 1447 1446 1444 1442 1440 1438 1436 1433 1431 1429 1427 1424 1422 1419 1417 1416 1414 1412 1411 1409 1407
1442 1441 1442 1441 1442 1444 1445 1446 1447 1448 1449 1450 1450 1451 1451 1451 1451 1451 1450 1450 1449 1447 1446 1445 1443 1442 1440 1438 1436 1434 1431 1429 1427 1424 1422 1420 1417 1415 1413 1411 1410 1408 1406 1405
1439 1440 1439 1439 1440 1441 1442 1444 1445 1446 1447 1447 1448 1448 1449 1449 1448 1448 1447 1447 1446 1445 1443 1442 1440 1439 1437 1435 1433 1431 1429 1427 1424 1422 1420 1418 1416 1413 1411 1409 1406 1404 1404 1402
1435 1436 1436 1436 1437 1438 1439 1441 1442 1442 1443 1444 1445 1445 1445 1445 1445 1445 1444 1444 1443 1441 1440 1439 1437 1435 1434 1432 1430 1428 1426 1424 1422 1420 1418 1416 1414 1411 1409 1407 1405 1403 1401 1399
1431 1432 1432 1432 1433 1434 1436 1437 1438 1439 1440 1440 1441 1441 1442 1442 1442 1442 1441 1440 1439 1438 1437 1435 1434 1432 1430 1429 1427 1425 1423 1421 1420 1418 1416 1414 1411 1409 1407 1405 1403 1401 1399 1397
1428 1427 1428 1428 1429 1430 1432 1433 1434 1435 1436 1437 1437 1438 1438 1439 1438 1438 1437 1437 1436 1434 1433 1432 1430 1429 1427 1426 1424 1422 1420 1418 1417 1415 1413 1411 1409 1407 1405 1403 1401 1399 1398 1396
1423 1423 1424 1424 1425 1427 1428 1430 1431 1432 1433 1433 1434 1434 1434 1434 1434 1434 1433 1433 1432 1431 1430 1428 1427 1425 1424 1422 1420 1419 1417 1415 1414 1412 1411 1409 1407 1405 1403 1401 1399 1397 1396 1394
1418 1419 1420 1421 1422 1424 1425 1426 1427 1428 1429 1430 1430 1430 1431 1431 1430 1430 1429 1429 1428 1427 1426 1425 1423 1422 1420 1419 1417 1415 1414 1412 1411 1409 1408 1406 1404 1402 1401 1399 1397 1396 1394 1393
1415 1416 1417 1418 1419 1420 1421 1423 1424 1425 1426 1426 1427 1427 1427 1427 1427 1426 1425 1425 1424 1423 1422 1421 1419 1418 1416 1415 1414 1412 1411 1409 1408 1406 1405 1404 1402 1400 1399 1397 1395 1394 1392 1391
1412 1413 1414 1415 1416 1417 1418 1419 1420 1421 1422 1422 1423 1423 1423 1423 1423 1422 1421 1420 1420 1419 1418 1417 1415 1414 1413 1411 1410 1409 1407 1406 1405 1403 1402 1401 1399 1398 1397 1395 1393 1392 1390 1389
1410 1410 1411 1412 1413 1414 1415 1416 1417 1418 1418 1419 1419 1419 1419 1419 1418 1418 1417 1417 1416 1415 1414 1413 1411 1410 1409 1408 1407 1405 1404 1403 1402 1401 1400 1398 1397 1395 1394 1393 1391 1390 1388 1387
1408 1408 1409 1410 1410 1411 1412 1413 1414 1414 1415 1415 1415 1415 1415 1415 1414 1414 1413 1413 1412 1411 1410 1409 1408 1407 1406 1404 1403 1402 1401 1400 1399 1398 1397 1396 1394 1393 1392 1390 1389 1387 1386 1384
1405 1406 1406 1407 1408 1408 1408 1409 1410 1411 1411 1411 1411 1411 1411 1411 1410 1410 1409 1408 1408 1407 1406 1405 1404 1403 1402 1401 1400 1399 1398 1397 1396 1395 1394 1393 1392 1390 1389 1388 1386 1385 1384 1382
1402 1403 1403 1404 1404 1405 1406 1406 1407 1407 1407 1407 1407 1407 1407 1407 1406 1405 1405 1404 1404 1403 1402 1401 1400 1400 1399 1397 1396 1395 1394 1393 1392 1391 1390 1389 1389 1387 1386 1385 1384 1382 1381 1380
1399 1399 1400 1401 1401 1402 1402 1402 1402 1403 1403 1403 1403 1403 1403 1402 1402 1401 1401 1400 1400 1399 1398 1398 1397 1396 1395 1394 1393 1392 1391 1390 1389 1388 1387 1386 1385 1384 1383 1382 1381 1379 1378 1377
1396 1396 1396 1396 1397 1398 1398 1398 1398 1398 1399 1399 1399 1399 1398 1398 1398 1397 1397 1397 1396 1396 1395 1394 1393 1392 1391 1390 1389 1388 1387 1387 1386 1385 1384 1383 1382 1381 1380 1379 1377 1376 1375 1373